Home > Time Zones > World Clock > Weather > Spain > Ceuta > Past weeks

Flag for Spain Weather past 2 weeks in Ceuta, Ceuta, Spain

Now
59 °F

Passing clouds.


Feels Like: 55 °F
Forecast: 54 / 58 °F
Wind: 20 mph from West

Location: Gibraltar Airport

Current Time: Dec 29, 2014 at 1:35:08 AM

Latest Report: Dec 29, 2014 at 12:50 AM


Visibility: N/A

Pressure: 30.18 "Hg

Humidity: 77%

Dew point: 52 °F

Location of CeutaLocation

Historic Weather in Ceuta — Graph

°F

Ceuta temperature yesterday

Maximum temperature yesterday: 59 °F (at 1:50 PM)
Minimum temperature yesterday: 54 °F (at 1:50 AM)
Average temperature yesterday: 57 °F

Past Weeks' High & Low Weather Summary

 TemperatureHumidityPressure
High66 °F (Dec 17, 12:50 PM)100% (Dec 24, 9:50 PM)30.48 "Hg (Dec 24, 9:50 PM)
Low48 °F (Dec 26, 4:50 AM)45% (Dec 26, 1:50 PM)29.83 "Hg (Dec 14, 3:50 PM)
Average58 °F76%30.29 "Hg
* Reported Dec 13 11:50 PM — Dec 28 11:50 PM, Ceuta, Weather by CustomWeather, © 2014

Note: Actual official high and low records may vary slightly from our data, if they occured in-between our weather recording intervals... More about our weather records

Advertising

Ceuta weather history for previous 24 hours

 ConditionsComfort  
Time TempWeatherWind HumidityBarometerVisibility
11:50 PM
Dec 28
59 °FPassing clouds.17 mph82%30.18 "HgN/A
10:50 PM59 °FPassing clouds.13 mph82%30.18 "HgN/A
9:50 PM59 °FPassing clouds.14 mph82%30.21 "HgN/A
8:50 PM59 °FPartly cloudy.16 mph77%30.21 "HgN/A
7:50 PM59 °FPassing clouds.16 mph77%30.21 "HgN/A
6:50 PM59 °FPassing clouds.15 mph77%30.18 "HgN/A
5:50 PM59 °FBroken clouds.13 mph72%30.21 "HgN/A
4:50 PM57 °FBroken clouds.16 mph77%30.21 "HgN/A
3:50 PM59 °FPartly sunny.20 mph72%30.21 "HgN/A
2:50 PM59 °FPartly sunny.20 mph68%30.21 "HgN/A
1:50 PM59 °FPassing clouds.22 mph68%30.21 "HgN/A
12:50 PM55 °FPassing clouds.21 mph72%30.24 "HgN/A
11:50 AM57 °FPassing clouds.15 mph67%30.24 "HgN/A
10:50 AM57 °FPassing clouds.14 mph72%30.24 "HgN/A
9:50 AM57 °FPassing clouds.13 mph77%30.24 "HgN/A
8:50 AM55 °FPassing clouds.16 mph77%30.21 "HgN/A
7:50 AM55 °FPassing clouds.16 mph77%30.21 "HgN/A
6:50 AM55 °FPassing clouds.16 mph77%30.21 "HgN/A
5:50 AM54 °FClear.15 mph82%30.21 "HgN/A
4:50 AM55 °FClear.22 mph77%30.21 "HgN/A
3:50 AM54 °FClear.24 mph82%30.24 "HgN/A
2:50 AM55 °FClear.23 mph77%30.24 "HgN/A
1:50 AM54 °FClear.21 mph82%30.24 "HgN/A
Weather by CustomWeather, © 2014

See weather overviewHow to use our weather pages